STARLINK-35479

Last updated on Fri Dec 05 2025 00:02:06 GMT+0000 (Coordinated Universal Time)

1 66326U 25253H 25338.62543997 .00094247 00000+0 15910-2 0 9999 2 66326 43.0005 32.1514 0001415 287.7439 72.3267 15.50615042 5678
UTC large
Height (km)
Speed (km/s)
/
Latitude / Longitude
Inclination (degrees)
Orbital Period (minutes)
Azimuth
Elevation
Range (km)
Doppler Factor

Next 0 passes for location: London (51.5072 / 0.1276)

Sorry there are no passes over London.